Hourly Data Report for January 25, 2017

PORT ALBERNI (AUT)
BRITISH COLUMBIA

49°18'59.700" N
124°55'36.600" W
76.20 m
1036B06
71475
WQC

Download Data

Hourly Data (January 2017)
Hourly Data Report for January 25, 2017
TIME
LST
Temp Definition
°C
Dew Point Definition
°C
Rel Hum Definition
%
Precip. Amount Definition
mm

Wind Dir Definition
10's deg

Wind Spd Definition
km/h
Visibility Definition
km
Stn Press Definition
kPa
Hmdx Definition


Wind Chill Definition


Weather Definition


00:00 0.1 LegendMM LegendMM 0.0 18 1   101.36     LegendNANA
01:00 0.2 LegendMM LegendMM 0.0   0   101.39     LegendNANA
02:00 0.2 LegendMM LegendMM 0.0 0 1   101.41     LegendNANA
03:00 0.4 LegendMM LegendMM 0.0 30 2   101.43     LegendNANA
04:00 0.4 LegendMM LegendMM 0.0 28 2   101.43     LegendNANA
05:00 0.4 LegendMM LegendMM 0.0   0   101.43     LegendNANA
06:00 0.5 LegendMM LegendMM 0.0   0   101.46     LegendNANA
07:00 0.3 LegendMM LegendMM 0.0 0 1   101.47     LegendNANA
08:00 0.3 LegendMM LegendMM 0.0   0   101.49     LegendNANA
09:00 0.7 LegendMM LegendMM 0.0 31 2   101.51     LegendNANA
10:00 1.0 LegendMM LegendMM 0.0 30 2   101.57     LegendNANA
11:00 1.6 LegendMM LegendMM 0.0 0 1   101.61     LegendNANA
12:00 2.5 LegendMM LegendMM 0.0 6 1   101.61     LegendNANA
13:00 3.2 LegendMM LegendMM 0.0 30 1   101.59     LegendNANA
14:00 4.2 2.4 88 0.0 23 2   101.56     LegendNANA
15:00 5.4 3.0 84 0.0 23 3   101.56     LegendNANA
16:00 4.7 2.2 84 0.0   0   101.61     LegendNANA
17:00 1.9 0.8 93 0.0   0   101.63     LegendNANA
18:00 -0.2 -0.9 95 0.0 31 4   101.67   -1 LegendNANA
19:00 -0.6 -1.0 97 0.0   0   101.70     LegendNANA
20:00 -0.5 -0.8 98 0.0 0 1   101.76   -1 LegendNANA
21:00 -0.3 -0.5 98 0.0   0   101.79     LegendNANA
22:00 -0.4 -0.6 98 0.0 31 2   101.86   -1 LegendNANA
23:00 -0.1 -0.4 98 0.0   0   101.90     LegendNANA

Notes on Data Quality.

Legend

  • E = Estimated
  • M = Missing
  • NA = Not Available*
  • [empty] = Indicates an unobserved value
Date modified: